Powrót do katalogu

CZ-4B R/B

AktywnySSO
NORAD 25732·ROCKET BODY·🇨🇳 China

Wystrzelony May 10, 1999 z Taiyuan Satellite Launch Center

Loading…

Następne Przeloty (najbliższe 24 godziny)

TLE

ŚwieżeSource: Space-Track

Epoka: Sep 14, 2026, 14:38 UTC

1 25732U 99025C   26257.60995797  .00000033  00000-0  36317-4 0  9998
2 25732  98.6411 297.1666 0037519 159.6932 353.3695 14.18295328414946

Śledź CZ-4B R/B w czasie rzeczywistym z AllMySat

Download on the App Store